NORTHEAST SUFFOLK  -  Wind Advisory Wind Advisory     Wind Advisory Wind Advisory     Rip Current Statement Rip Current Statement     Rip Current Statement Rip Current Statement        NORTHERN NASSAU  -  Wind Advisory Wind Advisory     Wind Advisory Wind Advisory     Coastal Flood Statement Coastal Flood Statement     Rip Current Statement Rip Current Statement     Rip Current Statement Rip Current Statement        NORTHERN QUEENS  -  Wind Advisory Wind Advisory     Coastal Flood Statement Coastal Flood Statement     Rip Current Statement Rip Current Statement     Rip Current Statement Rip Current Statement        NORTHWEST SUFFOLK  -  Wind Advisory Wind Advisory     Wind Advisory Wind Advisory     Rip Current Statement Rip Current Statement     Rip Current Statement Rip Current Statement        SOUTHEAST SUFFOLK  -  Wind Advisory Wind Advisory     Wind Advisory Wind Advisory     Rip Current Statement Rip Current Statement     Rip Current Statement Rip Current Statement        SOUTHERN NASSAU  -  Wind Advisory Wind Advisory     Wind Advisory Wind Advisory     Coastal Flood Statement Coastal Flood Statement     Rip Current Statement Rip Current Statement     Rip Current Statement Rip Current Statement        SOUTHERN QUEENS  -  Wind Advisory Wind Advisory     Coastal Flood Statement Coastal Flood Statement     Rip Current Statement Rip Current Statement     Rip Current Statement Rip Current Statement        SOUTHWEST SUFFOLK  -  Wind Advisory Wind Advisory     Wind Advisory Wind Advisory     Rip Current Statement Rip Current Statement     Rip Current Statement Rip Current Statement      

Active alerts

Northern Queens
  Details for Northern Queens Wind Advisory  +3 additional alerts
Southern Queens
  Details for Southern Queens Wind Advisory  +3 additional alerts
Northern Nassau
  Details for Northern Nassau Wind Advisory  +4 additional alerts
Southern Nassau
  Details for Southern Nassau Wind Advisory  +4 additional alerts
Northwest Suffolk
  Details for Northwest Suffolk Wind Advisory  +3 additional alerts
Southwest Suffolk
  Details for Southwest Suffolk Wind Advisory  +3 additional alerts
Northeast Suffolk
  Details for Northeast Suffolk Wind Advisory  +3 additional alerts
Southeast Suffolk
  Details for Southeast Suffolk Wind Advisory  +3 additional alerts


WXM80 ListenWXM80 Stop

You find our weather info also at:

UK Metoffice

WeatherCloud

Weather Underground

Northeastern Weather Network

AWEKAS

Citizen Weather Observer Program (CWOP)

HAMweather, WeatherForYou, PWS Weather


Weather Underground History page Text

Daily Summary for December 10, 2016 Units:  English    Metric   Both
« Previous Day
Next Day »
Daily Weekly Monthly Yearly Custom
  High: Low: Average:
Temperature: 35.7 °F 28.9 °F 31.8 °F
Dew Point: 24.2 °F 18.2 °F 21.2 °F
Humidity: 75 % 52 % 65 %
Wind Speed: 9.5 mph 0.8 mph 4.9 mph
Wind Gust: 19.0 mph - -
Wind:- - WNW
Pressure: 30.43 in 30.23 in -
Precipitation: 0.00 in    
Historical Graphs
 
 
Tabular Data for December 10, 2016
Time Temperature Dew Point Pressure Wind Wind Speed Wind Gust Humidity Rainfall Rate (Hourly)
00:05 30.0 °F 18.5 °F 30.23 in WNW 6.0 mph 17.0 mph 62 % 0.00 in
00:10 30.0 °F 18.2 °F 30.23 in WNW 8.1 mph 13.8 mph 61 % 0.00 in
00:15 30.0 °F 18.9 °F 30.23 in WNW 6.0 mph 15.0 mph 63 % 0.00 in
00:20 30.0 °F 19.3 °F 30.24 in WNW 8.0 mph 18.0 mph 64 % 0.00 in
00:25 30.0 °F 18.9 °F 30.23 in NW 6.0 mph 14.0 mph 63 % 0.00 in
00:29 29.9 °F 18.8 °F 30.23 in West 6.2 mph 9.2 mph 63 % 0.00 in
00:35 29.9 °F 19.2 °F 30.24 in NW 8.0 mph 16.0 mph 64 % 0.00 in
00:40 29.9 °F 19.2 °F 30.24 in NW 5.0 mph 16.0 mph 64 % 0.00 in
00:45 29.9 °F 19.5 °F 30.24 in WNW 6.0 mph 12.0 mph 65 % 0.00 in
00:50 29.8 °F 19.5 °F 30.24 in NW 6.0 mph 10.0 mph 65 % 0.00 in
00:55 29.8 °F 19.8 °F 30.24 in NNW 4.4 mph 8.0 mph 66 % 0.00 in
01:00 29.8 °F 19.5 °F 30.24 in NNW 5.7 mph 16.1 mph 65 % 0.00 in
01:05 29.8 °F 19.5 °F 30.24 in WNW 4.5 mph 13.0 mph 65 % 0.00 in
01:10 29.8 °F 19.8 °F 30.25 in WNW 4.1 mph 11.5 mph 66 % 0.00 in
01:15 29.8 °F 19.5 °F 30.24 in NW 5.5 mph 12.7 mph 65 % 0.00 in
01:20 29.8 °F 19.8 °F 30.25 in NW 5.2 mph 10.4 mph 66 % 0.00 in
01:25 29.8 °F 19.5 °F 30.25 in WNW 4.7 mph 10.0 mph 65 % 0.00 in
01:30 29.7 °F 19.7 °F 30.25 in NW 5.7 mph 10.4 mph 66 % 0.00 in
01:35 29.7 °F 19.7 °F 30.25 in NW 5.6 mph 13.8 mph 66 % 0.00 in
01:40 29.7 °F 19.4 °F 30.26 in NW 3.8 mph 10.4 mph 65 % 0.00 in
01:45 29.6 °F 19.6 °F 30.26 in NW 6.4 mph 8.1 mph 66 % 0.00 in
01:50 29.6 °F 19.3 °F 30.26 in NW 4.2 mph 10.0 mph 65 % 0.00 in
01:56 29.6 °F 19.3 °F 30.26 in NNW 3.9 mph 5.8 mph 65 % 0.00 in
02:01 29.6 °F 19.3 °F 30.26 in WNW 3.9 mph 11.5 mph 65 % 0.00 in
02:06 29.6 °F 19.6 °F 30.26 in West 7.9 mph 12.7 mph 66 % 0.00 in
02:11 29.6 °F 19.6 °F 30.27 in NW 5.5 mph 11.5 mph 66 % 0.00 in
02:16 29.6 °F 19.3 °F 30.27 in WNW 4.9 mph 9.2 mph 65 % 0.00 in
02:21 29.6 °F 19.3 °F 30.27 in West 6.3 mph 11.0 mph 65 % 0.00 in
02:26 29.6 °F 19.3 °F 30.27 in WNW 4.5 mph 11.5 mph 65 % 0.00 in
02:31 29.6 °F 19.3 °F 30.27 in West 2.9 mph 6.9 mph 65 % 0.00 in
02:36 29.6 °F 19.6 °F 30.28 in NW 3.1 mph 6.9 mph 66 % 0.00 in
02:41 29.6 °F 19.3 °F 30.28 in NW 4.8 mph 10.4 mph 65 % 0.00 in
02:46 29.6 °F 19.3 °F 30.28 in WNW 5.0 mph 6.9 mph 65 % 0.00 in
02:52 29.5 °F 19.5 °F 30.28 in NW 3.8 mph 6.9 mph 66 % 0.00 in
02:57 29.5 °F 19.9 °F 30.28 in WNW 4.3 mph 10.4 mph 67 % 0.00 in
03:02 29.5 °F 19.9 °F 30.28 in NW 5.9 mph 13.0 mph 67 % 0.00 in
03:07 29.5 °F 19.9 °F 30.28 in WNW 7.3 mph 12.7 mph 67 % 0.00 in
03:12 29.5 °F 19.9 °F 30.28 in NW 3.2 mph 11.5 mph 67 % 0.00 in
03:17 29.4 °F 19.4 °F 30.28 in WNW 7.9 mph 11.5 mph 66 % 0.00 in
03:22 29.4 °F 19.4 °F 30.28 in WNW 5.4 mph 11.5 mph 66 % 0.00 in
03:27 29.4 °F 19.8 °F 30.28 in WNW 3.0 mph 5.8 mph 67 % 0.00 in
03:32 29.4 °F 19.8 °F 30.28 in NW 6.8 mph 13.0 mph 67 % 0.00 in
03:37 29.3 °F 19.7 °F 30.28 in WNW 4.9 mph 10.4 mph 67 % 0.00 in
03:43 29.3 °F 20.0 °F 30.28 in NW 4.2 mph 12.7 mph 68 % 0.00 in
03:48 29.3 °F 20.0 °F 30.28 in NW 6.0 mph 10.4 mph 68 % 0.00 in
03:53 29.3 °F 20.0 °F 30.28 in WNW 5.7 mph 10.4 mph 68 % 0.00 in
03:58 29.3 °F 19.7 °F 30.28 in NE 3.6 mph 10.4 mph 67 % 0.00 in
04:03 29.3 °F 19.7 °F 30.28 in WNW 3.0 mph 5.8 mph 67 % 0.00 in
04:08 29.3 °F 20.0 °F 30.28 in WNW 5.5 mph 9.2 mph 68 % 0.00 in
04:13 29.2 °F 19.9 °F 30.28 in WSW 3.7 mph 10.4 mph 68 % 0.00 in
04:19 29.2 °F 19.9 °F 30.29 in West 4.1 mph 11.5 mph 68 % 0.00 in
04:29 29.1 °F 20.2 °F 30.29 in NW 3.7 mph 8.0 mph 69 % 0.00 in
04:34 29.0 °F 20.4 °F 30.29 in WNW 3.8 mph 9.0 mph 70 % 0.00 in
04:39 29.0 °F 20.4 °F 30.28 in WNW 4.5 mph 10.4 mph 70 % 0.00 in
04:44 28.9 °F 20.0 °F 30.29 in WNW 6.3 mph 13.8 mph 69 % 0.00 in
04:49 28.9 °F 20.0 °F 30.29 in NW 4.2 mph 11.5 mph 69 % 0.00 in
04:54 29.0 °F 20.4 °F 30.30 in SW 2.3 mph 11.5 mph 70 % 0.00 in
04:59 29.0 °F 20.1 °F 30.30 in WNW 5.1 mph 9.2 mph 69 % 0.00 in
05:04 29.0 °F 20.1 °F 30.30 in WNW 6.5 mph 9.2 mph 69 % 0.00 in
05:10 29.1 °F 20.2 °F 30.30 in WNW 5.0 mph 12.0 mph 69 % 0.00 in
05:15 29.1 °F 19.8 °F 30.30 in West 4.3 mph 9.2 mph 68 % 0.00 in
05:20 29.1 °F 20.2 °F 30.30 in WNW 3.0 mph 12.0 mph 69 % 0.00 in
05:25 29.1 °F 20.2 °F 30.30 in WNW 7.0 mph 14.0 mph 69 % 0.00 in
05:30 29.2 °F 19.9 °F 30.30 in WNW 7.4 mph 11.0 mph 68 % 0.00 in
05:35 29.2 °F 19.9 °F 30.30 in West 5.0 mph 15.0 mph 68 % 0.00 in
05:40 29.2 °F 19.9 °F 30.30 in West 6.0 mph 12.0 mph 68 % 0.00 in
05:45 29.2 °F 20.6 °F 30.30 in NW 2.6 mph 5.8 mph 70 % 0.00 in
05:50 29.2 °F 20.3 °F 30.31 in WNW 5.0 mph 14.0 mph 69 % 0.00 in
05:55 29.2 °F 19.9 °F 30.31 in NW 2.0 mph 13.0 mph 68 % 0.00 in
06:00 29.2 °F 20.3 °F 30.31 in WNW 4.5 mph 11.5 mph 69 % 0.00 in
06:05 29.2 °F 20.3 °F 30.31 in WNW 8.0 mph 15.0 mph 69 % 0.00 in
06:10 29.2 °F 20.3 °F 30.31 in WNW 6.0 mph 13.0 mph 69 % 0.00 in
06:15 29.2 °F 19.9 °F 30.31 in West 7.0 mph 12.0 mph 68 % 0.00 in
06:20 29.2 °F 20.3 °F 30.32 in West 6.0 mph 12.0 mph 69 % 0.00 in
06:25 29.1 °F 20.5 °F 30.32 in West 6.0 mph 12.0 mph 70 % 0.00 in
06:30 29.1 °F 20.5 °F 30.32 in WNW 2.0 mph 12.0 mph 70 % 0.00 in
06:35 29.0 °F 20.8 °F 30.32 in WNW 3.0 mph 13.0 mph 71 % 0.00 in
06:40 29.0 °F 20.8 °F 30.32 in WNW 4.4 mph 10.4 mph 71 % 0.00 in
06:45 29.0 °F 20.8 °F 30.33 in West 7.9 mph 10.4 mph 71 % 0.00 in
06:50 28.9 °F 21.0 °F 30.33 in WNW 3.4 mph 11.5 mph 72 % 0.00 in
06:55 28.9 °F 21.0 °F 30.33 in West 7.4 mph 11.5 mph 72 % 0.00 in
07:00 28.9 °F 21.0 °F 30.33 in NW 8.1 mph 11.5 mph 72 % 0.00 in
07:05 28.9 °F 21.0 °F 30.33 in West 4.0 mph 6.9 mph 72 % 0.00 in
07:10 28.9 °F 21.0 °F 30.34 in NW 4.9 mph 9.2 mph 72 % 0.00 in
07:15 28.9 °F 21.3 °F 30.34 in WNW 4.3 mph 6.9 mph 73 % 0.00 in
07:20 28.9 °F 21.3 °F 30.34 in NW 3.4 mph 3.5 mph 73 % 0.00 in
07:25 28.9 °F 21.3 °F 30.34 in WNW 3.2 mph 8.1 mph 73 % 0.00 in
07:30 28.9 °F 21.3 °F 30.34 in West 1.9 mph 4.0 mph 73 % 0.00 in
07:36 28.9 °F 21.3 °F 30.34 in West 4.7 mph 11.5 mph 73 % 0.00 in
07:41 29.0 °F 21.1 °F 30.34 in WNW 4.7 mph 10.4 mph 72 % 0.00 in
07:46 29.0 °F 21.1 °F 30.34 in WNW 5.5 mph 9.2 mph 72 % 0.00 in
07:51 29.1 °F 20.9 °F 30.34 in WNW 3.1 mph 7.0 mph 71 % 0.00 in
07:56 29.2 °F 21.0 °F 30.34 in WNW 3.5 mph 8.0 mph 71 % 0.00 in
08:01 29.2 °F 21.0 °F 30.34 in WSW 4.6 mph 9.2 mph 71 % 0.00 in
08:06 29.3 °F 21.1 °F 30.34 in SW 2.0 mph 5.8 mph 71 % 0.00 in
08:11 29.4 °F 20.8 °F 30.34 in SW 6.3 mph 10.0 mph 70 % 0.00 in
08:16 29.6 °F 21.0 °F 30.34 in West 5.1 mph 8.1 mph 70 % 0.00 in
08:21 29.7 °F 21.1 °F 30.35 in WNW 7.2 mph 8.1 mph 70 % 0.00 in
08:27 29.8 °F 20.9 °F 30.35 in WSW 5.5 mph 9.2 mph 69 % 0.00 in
08:32 30.0 °F 20.7 °F 30.35 in NW 4.9 mph 9.2 mph 68 % 0.00 in
08:37 30.1 °F 20.8 °F 30.35 in NW 4.1 mph 10.4 mph 68 % 0.00 in
08:42 30.3 °F 21.0 °F 30.35 in West 5.5 mph 10.4 mph 68 % 0.00 in
08:47 30.5 °F 20.8 °F 30.35 in WNW 5.7 mph 11.5 mph 67 % 0.00 in
08:52 30.6 °F 20.6 °F 30.36 in WNW 8.4 mph 12.7 mph 66 % 0.00 in
08:57 30.7 °F 20.7 °F 30.35 in West 5.2 mph 10.4 mph 66 % 0.00 in
09:02 30.8 °F 20.8 °F 30.36 in NW 6.9 mph 13.8 mph 66 % 0.00 in
09:07 31.0 °F 20.6 °F 30.36 in North 4.5 mph 11.5 mph 65 % 0.00 in
09:12 31.1 °F 20.7 °F 30.36 in SW 9.4 mph 13.8 mph 65 % 0.00 in
09:18 31.2 °F 20.4 °F 30.36 in West 9.3 mph 14.0 mph 64 % 0.00 in
09:23 31.4 °F 20.2 °F 30.36 in West 9.1 mph 16.1 mph 63 % 0.00 in
09:28 31.4 °F 20.6 °F 30.36 in WSW 4.1 mph 11.5 mph 64 % 0.00 in
09:33 31.5 °F 20.3 °F 30.36 in WNW 6.5 mph 11.5 mph 63 % 0.00 in
09:38 31.6 °F 20.4 °F 30.36 in West 9.3 mph 17.0 mph 63 % 0.00 in
09:43 31.7 °F 20.2 °F 30.36 in SW 4.6 mph 11.5 mph 62 % 0.00 in
09:48 31.8 °F 20.3 °F 30.36 in WNW 5.4 mph 12.7 mph 62 % 0.00 in
09:53 31.9 °F 20.3 °F 30.36 in WNW 3.6 mph 11.5 mph 62 % 0.00 in
09:58 32.0 °F 20.1 °F 30.35 in WNW 6.4 mph 11.5 mph 61 % 0.00 in
10:03 32.3 °F 21.1 °F 30.35 in West 6.3 mph 13.0 mph 63 % 0.00 in
10:09 32.5 °F 20.9 °F 30.36 in NNW 8.3 mph 12.7 mph 62 % 0.00 in
10:14 32.7 °F 21.5 °F 30.36 in WSW 8.4 mph 16.1 mph 63 % 0.00 in
10:19 32.9 °F 21.3 °F 30.36 in WNW 4.1 mph 9.2 mph 62 % 0.00 in
10:24 33.1 °F 21.1 °F 30.36 in WNW 7.2 mph 12.7 mph 61 % 0.00 in
10:29 33.1 °F 21.1 °F 30.35 in WSW 3.4 mph 7.0 mph 61 % 0.00 in
10:34 33.1 °F 21.1 °F 30.36 in West 6.0 mph 10.4 mph 61 % 0.00 in
10:44 33.1 °F 21.1 °F 30.35 in West 6.7 mph 11.5 mph 61 % 0.00 in
10:49 33.0 °F 21.0 °F 30.34 in WSW 5.3 mph 8.1 mph 61 % 0.00 in
10:54 33.0 °F 20.6 °F 30.34 in West 6.3 mph 11.5 mph 60 % 0.00 in
11:00 32.9 °F 20.5 °F 30.34 in WNW 9.5 mph 13.0 mph 60 % 0.00 in
11:05 32.8 °F 20.8 °F 30.34 in NW 7.2 mph 19.0 mph 61 % 0.00 in
11:10 32.9 °F 20.1 °F 30.34 in WNW 6.1 mph 11.5 mph 59 % 0.00 in
11:15 33.0 °F 20.2 °F 30.34 in NW 4.0 mph 8.1 mph 59 % 0.00 in
11:20 33.2 °F 20.4 °F 30.33 in WNW 5.3 mph 11.5 mph 59 % 0.00 in
11:25 33.4 °F 20.2 °F 30.33 in NW 5.0 mph 6.9 mph 58 % 0.00 in
11:30 33.5 °F 19.9 °F 30.33 in West 4.6 mph 9.0 mph 57 % 0.00 in
11:35 33.4 °F 19.8 °F 30.33 in WNW 7.6 mph 11.5 mph 57 % 0.00 in
11:40 33.3 °F 19.7 °F 30.33 in WSW 5.0 mph 8.1 mph 57 % 0.00 in
11:45 33.4 °F 19.8 °F 30.33 in WSW 6.3 mph 10.0 mph 57 % 0.00 in
11:51 33.6 °F 19.1 °F 30.33 in West 7.7 mph 12.7 mph 55 % 0.00 in
11:56 33.8 °F 20.2 °F 30.32 in NNW 3.4 mph 6.9 mph 57 % 0.00 in
12:01 34.2 °F 20.5 °F 30.32 in West 6.0 mph 11.0 mph 57 % 0.00 in
12:06 34.5 °F 20.0 °F 30.32 in SW 6.3 mph 12.7 mph 55 % 0.00 in
12:11 34.6 °F 20.1 °F 30.32 in West 6.4 mph 10.4 mph 55 % 0.00 in
12:16 34.6 °F 20.1 °F 30.32 in WNW 7.4 mph 11.5 mph 55 % 0.00 in
12:21 34.6 °F 20.5 °F 30.31 in West 4.6 mph 8.1 mph 56 % 0.00 in
12:26 34.9 °F 20.4 °F 30.32 in WNW 5.8 mph 10.4 mph 55 % 0.00 in
12:31 35.1 °F 20.5 °F 30.32 in WNW 7.0 mph 12.7 mph 55 % 0.00 in
12:36 35.3 °F 20.3 °F 30.31 in WNW 5.7 mph 9.2 mph 54 % 0.00 in
12:42 35.5 °F 20.0 °F 30.31 in WNW 5.8 mph 11.5 mph 53 % 0.00 in
12:47 35.6 °F 19.7 °F 30.31 in West 3.4 mph 6.9 mph 52 % 0.00 in
12:52 35.6 °F 19.7 °F 30.31 in NW 6.4 mph 11.0 mph 52 % 0.00 in
12:57 35.7 °F 19.8 °F 30.31 in West 8.1 mph 11.5 mph 52 % 0.00 in
13:02 35.7 °F 20.2 °F 30.31 in WNW 6.1 mph 11.5 mph 53 % 0.00 in
13:07 35.7 °F 20.2 °F 30.30 in NW 4.5 mph 11.5 mph 53 % 0.00 in
13:12 35.6 °F 20.1 °F 30.30 in West 9.2 mph 12.7 mph 53 % 0.00 in
13:17 35.5 °F 20.5 °F 30.30 in West 7.9 mph 11.0 mph 54 % 0.00 in
13:22 35.3 °F 20.3 °F 30.30 in WNW 3.4 mph 5.8 mph 54 % 0.00 in
13:27 35.2 °F 20.6 °F 30.30 in West 4.0 mph 12.7 mph 55 % 0.00 in
13:33 35.2 °F 21.1 °F 30.30 in NW 5.6 mph 9.2 mph 56 % 0.00 in
13:38 35.1 °F 20.5 °F 30.30 in WNW 5.1 mph 10.4 mph 55 % 0.00 in
13:43 35.2 °F 21.5 °F 30.30 in WNW 5.3 mph 11.0 mph 57 % 0.00 in
13:48 35.2 °F 21.5 °F 30.30 in West 5.2 mph 9.2 mph 57 % 0.00 in
13:53 35.2 °F 20.6 °F 30.30 in SW 6.9 mph 10.4 mph 55 % 0.00 in
13:58 35.1 °F 21.0 °F 30.30 in West 5.8 mph 8.1 mph 56 % 0.00 in
14:03 35.2 °F 20.6 °F 30.30 in NW 7.9 mph 11.5 mph 55 % 0.00 in
14:08 35.2 °F 21.5 °F 30.31 in NW 4.6 mph 7.0 mph 57 % 0.00 in
14:13 35.1 °F 21.4 °F 30.31 in WNW 5.8 mph 6.9 mph 57 % 0.00 in
14:18 35.1 °F 21.0 °F 30.31 in WNW 8.5 mph 12.7 mph 56 % 0.00 in
14:24 35.0 °F 20.9 °F 30.31 in NW 5.0 mph 11.5 mph 56 % 0.00 in
14:29 35.0 °F 21.3 °F 30.31 in WNW 5.6 mph 10.4 mph 57 % 0.00 in
14:34 34.9 °F 21.2 °F 30.31 in NW 6.4 mph 12.0 mph 57 % 0.00 in
14:39 35.0 °F 21.7 °F 30.31 in WNW 3.4 mph 8.1 mph 58 % 0.00 in
14:44 35.0 °F 21.7 °F 30.31 in WNW 3.0 mph 5.8 mph 58 % 0.00 in
14:49 35.0 °F 21.3 °F 30.31 in WSW 4.4 mph 8.1 mph 57 % 0.00 in
14:54 35.0 °F 21.3 °F 30.31 in WNW 3.7 mph 9.2 mph 57 % 0.00 in
14:59 34.9 °F 21.2 °F 30.31 in WSW 5.5 mph 14.0 mph 57 % 0.00 in
15:04 34.8 °F 21.1 °F 30.31 in North 5.4 mph 9.2 mph 57 % 0.00 in
15:09 34.8 °F 21.1 °F 30.31 in WNW 4.0 mph 10.4 mph 57 % 0.00 in
15:15 34.8 °F 21.5 °F 30.32 in NW 7.0 mph 12.0 mph 58 % 0.00 in
15:20 34.9 °F 21.6 °F 30.31 in WNW 6.0 mph 12.0 mph 58 % 0.00 in
15:24 35.0 °F 22.1 °F 30.32 in WSW 3.5 mph 13.0 mph 59 % 0.00 in
15:30 35.0 °F 21.3 °F 30.32 in West 6.0 mph 12.0 mph 57 % 0.00 in
15:35 35.0 °F 21.3 °F 30.32 in West 6.0 mph 15.0 mph 57 % 0.00 in
15:39 34.8 °F 21.1 °F 30.32 in WNW 8.7 mph 11.5 mph 57 % 0.00 in
15:45 34.7 °F 21.4 °F 30.33 in West 5.0 mph 12.0 mph 58 % 0.00 in
15:50 34.6 °F 21.3 °F 30.33 in West 7.0 mph 12.0 mph 58 % 0.00 in
15:54 34.6 °F 21.3 °F 30.33 in SW 2.6 mph 11.5 mph 58 % 0.00 in
16:00 34.5 °F 20.8 °F 30.33 in West 5.7 mph 8.1 mph 57 % 0.00 in
16:05 34.4 °F 20.7 °F 30.33 in West 2.4 mph 10.4 mph 57 % 0.00 in
16:10 34.4 °F 21.1 °F 30.33 in NW 5.8 mph 10.4 mph 58 % 0.00 in
16:15 34.2 °F 20.9 °F 30.33 in NW 2.1 mph 3.5 mph 58 % 0.00 in
16:20 34.1 °F 20.9 °F 30.33 in West 4.8 mph 10.0 mph 58 % 0.00 in
16:25 34.0 °F 21.2 °F 30.33 in WNW 3.5 mph 8.0 mph 59 % 0.00 in
16:30 33.9 °F 20.7 °F 30.33 in WNW 2.5 mph 11.5 mph 58 % 0.00 in
16:35 33.7 °F 20.5 °F 30.33 in NW 5.8 mph 9.0 mph 58 % 0.00 in
16:40 33.7 °F 20.9 °F 30.34 in NW 3.7 mph 11.5 mph 59 % 0.00 in
16:45 33.7 °F 20.9 °F 30.34 in WNW 4.9 mph 13.8 mph 59 % 0.00 in
16:51 33.6 °F 21.2 °F 30.35 in WNW 7.2 mph 9.2 mph 60 % 0.00 in
16:56 33.6 °F 21.6 °F 30.35 in West 6.0 mph 10.4 mph 61 % 0.00 in
17:01 33.5 °F 21.9 °F 30.35 in West 7.3 mph 11.5 mph 62 % 0.00 in
17:06 33.5 °F 21.9 °F 30.35 in WNW 3.3 mph 9.2 mph 62 % 0.00 in
17:11 33.5 °F 21.9 °F 30.35 in West 3.2 mph 9.2 mph 62 % 0.00 in
17:16 33.5 °F 22.2 °F 30.35 in NW 3.9 mph 6.9 mph 63 % 0.00 in
17:21 33.5 °F 21.9 °F 30.35 in NW 4.5 mph 8.1 mph 62 % 0.00 in
17:26 33.4 °F 21.8 °F 30.35 in West 4.0 mph 6.0 mph 62 % 0.00 in
17:31 33.4 °F 21.8 °F 30.36 in WNW 4.4 mph 6.9 mph 62 % 0.00 in
17:37 33.3 °F 22.1 °F 30.36 in West 3.8 mph 6.0 mph 63 % 0.00 in
17:47 33.2 °F 22.0 °F 30.36 in WNW 4.1 mph 9.2 mph 63 % 0.00 in
17:52 33.1 °F 22.2 °F 30.36 in WSW 1.9 mph 6.9 mph 64 % 0.00 in
17:57 33.1 °F 22.2 °F 30.36 in WNW 2.7 mph 3.5 mph 64 % 0.00 in
18:02 33.0 °F 22.5 °F 30.36 in West 1.0 mph 4.0 mph 65 % 0.00 in
18:07 33.0 °F 22.5 °F 30.37 in West 0.8 mph 3.0 mph 65 % 0.00 in
18:12 32.9 °F 22.8 °F 30.37 in West 2.8 mph 5.8 mph 66 % 0.00 in
18:17 32.8 °F 22.7 °F 30.37 in WNW 3.1 mph 8.1 mph 66 % 0.00 in
18:22 32.8 °F 22.7 °F 30.37 in West 3.1 mph 3.5 mph 66 % 0.00 in
18:27 32.8 °F 22.7 °F 30.37 in WSW 2.0 mph 4.6 mph 66 % 0.00 in
18:32 32.9 °F 22.8 °F 30.37 in WNW 5.1 mph 9.0 mph 66 % 0.00 in
18:38 32.9 °F 22.4 °F 30.38 in WNW 3.9 mph 10.4 mph 65 % 0.00 in
18:43 32.9 °F 22.4 °F 30.38 in West 3.4 mph 12.7 mph 65 % 0.00 in
18:48 33.0 °F 22.9 °F 30.38 in WNW 4.0 mph 10.4 mph 66 % 0.00 in
18:53 32.9 °F 22.8 °F 30.38 in West 1.0 mph 3.5 mph 66 % 0.00 in
18:58 33.0 °F 23.2 °F 30.38 in West 1.3 mph 5.8 mph 67 % 0.00 in
19:03 32.9 °F 23.1 °F 30.38 in West 4.7 mph 8.1 mph 67 % 0.00 in
19:08 32.9 °F 23.1 °F 30.38 in WNW 5.7 mph 7.0 mph 67 % 0.00 in
19:13 32.9 °F 22.8 °F 30.38 in WNW 6.6 mph 11.5 mph 66 % 0.00 in
19:18 32.9 °F 22.8 °F 30.38 in WSW 5.4 mph 6.0 mph 66 % 0.00 in
19:23 32.9 °F 23.1 °F 30.38 in WSW 4.1 mph 8.1 mph 67 % 0.00 in
19:29 32.9 °F 23.1 °F 30.38 in WSW 3.2 mph 8.1 mph 67 % 0.00 in
19:34 32.9 °F 23.1 °F 30.39 in West 4.0 mph 8.1 mph 67 % 0.00 in
19:39 32.9 °F 23.1 °F 30.39 in West 3.9 mph 6.9 mph 67 % 0.00 in
19:44 32.9 °F 23.1 °F 30.39 in WNW 6.5 mph 11.5 mph 67 % 0.00 in
19:49 32.9 °F 23.5 °F 30.39 in West 2.6 mph 5.8 mph 68 % 0.00 in
19:54 32.9 °F 23.5 °F 30.39 in WSW 3.5 mph 6.0 mph 68 % 0.00 in
19:59 32.8 °F 23.4 °F 30.40 in NW 4.6 mph 9.2 mph 68 % 0.00 in
20:04 32.8 °F 23.0 °F 30.40 in WNW 3.5 mph 5.8 mph 67 % 0.00 in
20:09 32.8 °F 23.0 °F 30.40 in West 2.5 mph 3.5 mph 67 % 0.00 in
20:14 32.7 °F 23.3 °F 30.40 in NW 4.6 mph 8.1 mph 68 % 0.00 in
20:20 32.7 °F 23.3 °F 30.40 in WNW 7.0 mph 12.0 mph 68 % 0.00 in
20:25 32.7 °F 23.3 °F 30.40 in WNW 3.0 mph 10.0 mph 68 % 0.00 in
20:30 32.7 °F 23.3 °F 30.40 in WNW 5.0 mph 12.0 mph 68 % 0.00 in
20:35 32.7 °F 23.3 °F 30.40 in West 5.0 mph 12.0 mph 68 % 0.00 in
20:40 32.7 °F 23.3 °F 30.40 in West 3.0 mph 12.0 mph 68 % 0.00 in
20:45 32.7 °F 23.6 °F 30.40 in West 6.0 mph 10.0 mph 69 % 0.00 in
20:50 32.7 °F 23.6 °F 30.40 in West 6.0 mph 10.0 mph 69 % 0.00 in
20:54 32.6 °F 23.6 °F 30.40 in West 5.0 mph 8.0 mph 69 % 0.00 in
20:59 32.6 °F 22.8 °F 30.40 in WNW 4.2 mph 5.8 mph 67 % 0.00 in
21:05 32.6 °F 23.2 °F 30.40 in WNW 3.0 mph 12.0 mph 68 % 0.00 in
21:09 32.6 °F 22.8 °F 30.40 in WNW 3.0 mph 9.0 mph 67 % 0.00 in
21:14 32.6 °F 22.8 °F 30.40 in WNW 7.3 mph 12.7 mph 67 % 0.00 in
21:20 32.7 °F 22.9 °F 30.39 in West 2.0 mph 8.0 mph 67 % 0.00 in
21:25 32.6 °F 22.9 °F 30.39 in WNW 3.0 mph 8.0 mph 67 % 0.00 in
21:30 32.6 °F 22.8 °F 30.40 in WNW 1.0 mph 5.0 mph 67 % 0.00 in
21:35 32.5 °F 22.8 °F 30.39 in WNW 3.0 mph 9.0 mph 67 % 0.00 in
21:39 32.5 °F 23.1 °F 30.40 in WNW 5.0 mph 8.0 mph 68 % 0.00 in
21:44 32.4 °F 23.0 °F 30.40 in NW 2.4 mph 7.0 mph 68 % 0.00 in
21:50 32.3 °F 23.3 °F 30.40 in West 2.0 mph 5.0 mph 69 % 0.00 in
21:55 32.3 °F 23.3 °F 30.40 in WNW 3.0 mph 9.0 mph 69 % 0.00 in
21:59 32.2 °F 23.2 °F 30.40 in WNW 4.4 mph 11.5 mph 69 % 0.00 in
22:05 32.1 °F 22.7 °F 30.40 in West 1.0 mph 12.0 mph 68 % 0.00 in
22:10 32.1 °F 22.7 °F 30.41 in West 3.0 mph 6.0 mph 68 % 0.00 in
22:14 32.0 °F 23.0 °F 30.41 in West 3.0 mph 7.0 mph 69 % 0.00 in
22:19 31.9 °F 22.9 °F 30.41 in West 3.0 mph 7.0 mph 69 % 0.00 in
22:25 31.9 °F 22.9 °F 30.41 in West 2.0 mph 6.0 mph 69 % 0.00 in
22:29 31.8 °F 23.1 °F 30.41 in WSW 2.6 mph 4.6 mph 70 % 0.00 in
22:34 31.8 °F 23.1 °F 30.42 in West 5.0 mph 9.0 mph 70 % 0.00 in
22:40 31.7 °F 23.4 °F 30.42 in WNW 5.0 mph 8.0 mph 71 % 0.00 in
22:44 31.7 °F 23.4 °F 30.42 in WNW 3.4 mph 5.8 mph 71 % 0.00 in
22:49 31.7 °F 23.7 °F 30.42 in WNW 3.0 mph 7.0 mph 72 % 0.00 in
22:54 31.7 °F 23.7 °F 30.43 in WNW 2.0 mph 6.0 mph 72 % 0.00 in
22:59 31.6 °F 23.9 °F 30.42 in WNW 4.4 mph 8.1 mph 73 % 0.00 in
23:09 31.6 °F 23.9 °F 30.42 in West 5.0 mph 10.0 mph 73 % 0.00 in
23:14 31.6 °F 23.9 °F 30.42 in West 5.7 mph 11.0 mph 73 % 0.00 in
23:20 31.5 °F 23.8 °F 30.42 in West 3.0 mph 9.0 mph 73 % 0.00 in
23:25 31.5 °F 24.2 °F 30.43 in West 2.3 mph 5.8 mph 74 % 0.00 in
23:30 31.4 °F 24.1 °F 30.43 in WNW 4.1 mph 6.9 mph 74 % 0.00 in
23:35 31.4 °F 24.1 °F 30.43 in WNW 2.0 mph 3.5 mph 74 % 0.00 in
23:40 31.3 °F 24.0 °F 30.43 in WNW 1.8 mph 4.6 mph 74 % 0.00 in
23:45 31.2 °F 23.9 °F 30.43 in WSW 3.7 mph 6.9 mph 74 % 0.00 in
23:50 31.2 °F 23.9 °F 30.43 in WSW 4.5 mph 6.0 mph 74 % 0.00 in
23:55 31.1 °F 24.1 °F 30.43 in West 2.5 mph 3.5 mph 75 % 0.00 in
Crab Meadow Weather
Compliments of Weather Underground - 3 mb

Script developed by  Jim McMurry - jmcmurry@mwt.net Adapted for the template by  Wim van der Kuil - Leuven-Template.eu

Weather Terms: Waterspout - In general, a tornado occurring over water. Specifically, it refers to a small, relatively weak rotating column of air over water beneath a towering cumulus or cumulonimbus cloud. They occasionally occur over Lake Michigan in late summer with unusually cold air aloft.